Wind_Speed
19 19 19 18 20 18 18 20 19 19 18 18 17 17 16 15 14 13 12 11 9 8 7 6 5 5 6 6 7 7 8 8 9 9 9 9 9 9 9 9 8 8 8 8 9 8 8 8 8
18 18 19 20 20 18 20 20 20 20 19 19 18 18 17 16 15 14 13 12 10 9 7 6 5 5 5 6 7 7 8 9 9 9 9 9 9 9 9 8 7 7 7 8 8 8 7 7 7
18 17 19 19 18 19 20 21 21 20 20 20 20 19 18 16 15 14 13 12 11 9 7 5 5 5 5 6 7 7 8 9 9 9 9 8 8 8 8 7 7 7 7 7 8 7 7 7 7
17 18 19 18 18 20 21 21 21 21 21 20 20 19 18 17 15 14 13 12 10 9 7 6 5 5 5 6 6 7 8 8 9 8 8 8 8 7 7 7 7 6 7 8 8 7 7 8 8
16 18 17 16 18 20 21 21 22 23 22 21 20 19 18 17 16 14 13 12 11 9 7 5 4 4 5 6 6 7 8 8 8 8 7 7 7 7 7 7 7 7 8 8 8 7 7 7 7
16 18 15 16 17 19 20 21 22 23 22 21 21 20 18 17 16 15 13 12 11 9 7 5 5 4 5 5 5 6 7 8 8 7 7 7 7 8 7 7 8 7 7 7 7 6 7 7 7
15 15 14 15 16 18 19 20 22 22 22 22 21 20 19 18 16 15 13 12 11 9 7 6 5 5 4 5 5 5 6 7 7 7 6 7 8 7 7 8 8 7 7 7 6 6 7 7 7
14 14 14 14 15 16 17 19 20 22 21 21 21 20 19 18 16 15 14 12 11 10 8 7 6 6 5 5 5 6 6 7 7 7 6 7 7 7 7 7 7 7 7 7 7 7 7 7 6
13 13 10 12 15 15 16 18 19 20 20 20 20 20 19 18 17 15 14 13 11 10 9 7 6 5 6 6 6 6 6 6 6 6 6 6 6 7 7 7 7 7 7 6 7 7 6 6 5
12 9 9 12 14 15 16 17 18 19 20 20 20 20 19 18 17 16 14 13 12 10 9 8 6 6 5 5 5 5 5 5 6 6 6 5 6 6 7 7 7 7 6 6 6 6 5 5 5
9 8 9 11 13 14 15 16 17 18 18 18 19 19 19 19 18 16 15 13 12 11 10 9 8 7 6 5 5 5 5 5 5 6 6 5 6 6 6 7 7 6 6 6 5 5 5 5 5
7 7 8 9 10 12 14 15 16 16 16 17 17 17 18 18 18 17 16 13 12 12 11 9 8 7 6 5 5 5 4 4 5 5 5 5 5 6 6 6 6 6 5 5 5 5 5 5 4
6 7 7 7 8 10 11 13 14 15 15 16 17 17 17 18 18 17 16 14 12 12 11 9 8 7 6 6 5 4 3 3 4 4 5 5 5 6 6 6 6 5 5 5 5 4 4 4 4
6 7 6 6 7 8 10 12 12 13 14 15 17 17 17 17 17 17 16 14 13 12 11 10 8 7 5 5 5 4 4 3 3 4 4 4 5 6 5 5 5 5 5 5 4 4 4 4 3
5 5 4 4 6 6 8 10 11 12 13 14 15 16 17 16 16 17 16 15 14 13 12 10 9 9 6 5 4 3 3 2 2 3 3 4 4 5 5 5 5 5 4 4 4 4 4 3 3
5 3 2 2 4 5 6 6 8 10 12 13 14 15 15 16 15 16 16 15 14 13 13 10 10 10 8 5 4 2 1 1 1 2 3 3 4 5 5 5 5 5 5 4 4 4 4 4 3
5 4 4 2 2 3 4 4 6 8 10 12 12 13 14 14 15 15 15 14 13 13 13 11 11 10 8 6 4 3 2 1 1 1 2 3 3 4 5 5 5 5 5 5 4 4 5 5 4
8 6 5 3 1 1 2 3 5 7 9 11 11 12 13 13 14 14 15 14 13 13 12 11 11 10 8 6 4 3 2 1 1 1 1 2 3 3 4 5 5 5 5 5 5 5 5 6 6
9 7 6 5 2 1 2 3 4 6 9 10 11 12 12 13 13 14 14 14 13 13 13 12 11 11 9 7 4 3 2 1 1 1 1 2 3 3 4 4 5 5 6 6 5 5 6 6 6
10 8 7 6 4 3 3 4 5 6 8 9 9 11 12 12 12 13 13 13 13 12 13 12 11 11 10 8 5 3 3 2 2 2 2 3 3 4 4 5 5 5 6 6 6 6 7 7 8
11 10 9 8 6 6 5 6 7 7 8 8 8 10 11 12 12 12 12 13 13 12 13 12 12 11 10 8 7 5 3 3 3 3 3 4 4 5 5 5 5 6 6 7 7 7 7 7 8
14 13 11 9 8 8 6 7 10 8 7 7 8 9 10 11 11 11 11 12 12 12 13 12 12 11 10 9 8 6 5 5 4 4 4 4 4 5 5 5 6 6 6 7 7 8 9 9 9
16 14 12 11 10 9 9 7 9 8 8 8 8 9 9 10 11 11 11 12 12 12 12 12 12 12 10 10 8 6 5 5 5 5 4 4 4 4 5 5 6 6 6 7 7 8 9 10 10
17 15 13 12 11 11 11 9 9 9 8 8 8 8 9 10 11 12 12 12 12 12 12 12 12 11 10 9 8 7 6 6 5 5 5 5 5 5 6 6 7 7 8 8 9 9 10 10 11
18 16 14 12 12 12 12 10 10 10 9 8 9 9 9 10 12 12 12 13 12 12 12 12 11 10 9 8 7 7 6 6 6 6 6 5 6 6 6 6 7 8 9 9 9 10 10 11 12
20 18 16 13 12 13 13 11 11 10 10 9 9 9 9 10 12 12 13 13 13 13 13 12 11 9 9 8 7 7 7 7 7 7 7 7 7 7 7 7 8 8 8 9 10 11 11 12 12
22 21 19 17 15 13 13 12 11 10 10 10 10 10 9 10 12 13 13 13 14 14 14 13 11 10 9 9 8 8 8 8 8 7 7 8 8 8 8 8 8 9 9 10 11 12 13 13 14
25 23 22 19 17 15 14 12 12 11 10 10 10 10 10 11 12 13 13 13 14 14 13 12 12 11 10 9 8 9 9 9 9 9 9 9 9 8 9 9 10 10 11 11 12 13 14 14 15
26 25 24 21 19 15 13 13 13 12 11 11 11 11 11 12 13 13 14 14 14 13 12 12 11 10 10 9 9 9 10 9 8 9 10 10 10 11 11 11 11 12 12 13 13 14 15 15 15
27 26 25 23 22 18 15 15 14 13 12 12 12 12 12 13 14 14 14 14 14 13 12 12 10 10 10 9 10 10 10 9 9 10 10 11 11 12 12 13 13 13 13 14 15 15 16 16 16
Wind_Direction
73 71 70 70 68 70 72 72 69 67 66 65 64 64 64 64 64 65 64 65 68 74 80 87 93 106 117 120 122 121 119 118 117 115 114 111 110 110 112 110 108 108 108 107 104 104 106 106 106
73 70 69 68 71 69 68 68 67 65 64 63 62 61 60 59 59 59 60 61 61 63 71 79 88 103 116 123 124 123 122 123 121 119 119 118 115 114 113 110 107 111 111 110 108 105 106 110 110
74 70 68 69 72 69 68 67 65 62 60 60 59 58 56 55 54 54 57 58 58 59 64 72 85 100 113 122 124 123 124 124 123 121 123 125 123 121 119 116 113 115 117 117 113 106 105 112 112
75 70 67 69 68 67 67 66 64 61 59 58 57 56 54 53 51 50 53 56 56 57 61 68 78 96 111 120 125 128 129 127 124 124 125 126 126 124 122 122 116 114 117 119 115 111 109 113 114
75 71 68 66 65 64 64 63 62 61 58 57 56 55 53 51 49 48 51 53 52 54 56 63 76 95 110 118 125 130 132 132 129 129 130 131 130 126 124 122 118 118 118 121 116 114 116 118 116
77 75 73 69 66 63 62 60 60 60 57 55 55 53 51 49 47 46 48 50 49 50 52 58 72 96 112 119 124 128 132 134 132 131 132 131 130 127 126 123 121 118 119 118 117 115 118 122 118
85 84 81 73 66 62 61 60 60 58 57 54 52 51 49 48 46 44 44 45 48 48 48 54 69 92 104 109 115 121 125 132 132 132 130 129 126 126 127 128 121 119 120 119 116 114 117 120 121
87 81 74 72 69 64 61 61 59 57 55 53 50 48 46 45 45 43 43 45 47 47 48 55 68 81 93 104 110 115 119 127 130 130 130 125 123 128 129 126 125 125 125 122 119 116 114 118 121
84 81 77 73 70 66 63 62 59 57 53 50 47 45 44 44 44 43 43 44 45 45 47 51 64 78 90 100 106 110 113 123 129 131 131 127 127 131 130 128 128 129 129 127 125 122 116 121 122
86 88 83 76 72 68 64 62 59 56 51 47 44 42 42 43 42 42 42 42 42 40 42 47 54 69 84 95 107 108 110 118 126 134 136 130 130 132 133 133 130 131 131 132 129 126 126 127 128
93 99 88 79 73 69 64 59 56 53 49 44 42 42 41 41 41 40 40 39 38 37 40 49 54 64 76 89 101 104 104 110 120 133 137 136 136 135 135 135 136 134 134 135 133 132 129 136 134
97 102 95 83 73 69 64 58 53 50 47 43 42 40 38 38 37 37 38 36 34 33 36 46 54 65 73 80 91 101 105 110 119 130 135 141 142 141 139 142 145 141 141 139 139 145 139 137 139
111 110 99 87 77 70 65 58 51 46 42 40 38 35 34 35 34 33 33 34 32 31 32 35 41 52 61 70 80 92 97 109 121 132 135 145 154 153 147 147 148 144 149 152 149 159 153 147 147
124 117 106 93 84 72 65 55 48 43 38 35 33 30 28 29 29 28 27 27 28 28 26 26 28 34 49 61 74 80 81 96 119 133 135 147 158 162 160 159 155 152 154 161 165 168 171 172 169
142 128 117 104 87 73 63 49 41 36 34 32 28 24 23 24 23 22 21 21 22 22 20 20 22 26 38 47 63 70 74 87 111 137 146 149 159 166 169 171 174 173 173 179 181 188 193 189 187
166 150 159 130 96 74 59 35 29 28 27 26 23 20 19 19 18 16 15 16 16 16 14 16 19 19 23 25 23 27 41 42 122 150 154 157 172 176 179 184 185 191 194 196 193 200 209 214 214
195 195 207 180 111 81 58 29 17 20 19 18 17 16 15 13 12 9 8 9 10 10 10 14 14 11 10 9 6 9 8 336 300 197 176 164 173 186 190 192 196 203 204 205 210 212 219 223 228
215 210 215 215 184 73 32 10 5 12 11 9 7 6 7 7 5 4 3 1 5 4 6 8 7 5 6 3 6 16 3 333 294 249 224 213 202 203 204 204 207 212 216 218 224 232 228 226 233
213 214 224 233 237 256 316 337 347 358 2 1 359 359 0 1 360 359 1 2 1 358 360 0 360 359 359 357 2 12 18 0 321 287 263 253 238 234 218 216 221 223 226 230 237 233 233 233 242
222 222 239 252 259 265 283 309 329 342 348 351 352 353 355 354 354 353 354 355 355 354 354 354 353 353 354 354 354 348 347 343 328 300 277 263 250 240 233 226 225 232 242 244 242 240 244 246 249
227 229 242 256 270 271 279 305 311 323 330 335 340 345 351 352 354 354 354 352 351 350 349 351 346 345 345 343 340 341 328 331 320 301 289 275 256 248 244 238 235 243 250 249 246 246 251 253 255
233 235 242 252 262 271 273 281 299 310 319 324 330 336 343 347 349 349 348 347 346 344 345 345 343 342 342 340 336 330 321 314 311 306 299 283 263 254 258 250 240 249 255 249 249 253 256 258 261
232 236 242 248 255 265 276 275 282 297 307 312 319 328 337 343 345 344 344 344 344 342 339 338 339 337 337 336 332 327 326 324 321 311 298 280 267 262 263 255 252 257 255 252 255 258 260 262 263
232 237 243 251 259 265 270 273 276 286 297 303 313 324 332 337 342 342 341 340 340 340 338 336 333 333 331 331 329 322 320 318 315 312 304 286 274 270 267 258 262 260 258 261 263 265 263 265 267
230 235 244 253 258 263 269 269 269 279 285 292 309 320 326 332 338 340 341 339 338 336 334 332 329 326 321 320 321 317 311 309 305 300 295 290 281 276 275 270 271 266 262 264 267 268 269 268 270
231 232 233 241 251 263 272 268 272 275 279 285 299 310 318 327 334 337 337 337 337 335 332 329 326 324 319 314 313 313 305 302 300 295 290 287 283 280 278 277 279 275 269 268 271 272 272 271 274
232 232 235 241 245 251 263 270 272 272 276 282 292 302 311 321 326 331 333 333 333 332 331 330 327 324 320 317 311 308 304 297 295 293 289 285 281 278 277 277 277 277 274 274 276 276 275 274 274
233 234 237 238 246 251 262 268 265 270 272 279 288 296 303 313 319 325 330 329 329 330 330 330 326 321 315 316 314 311 307 302 293 290 289 288 286 281 279 280 279 278 281 282 283 280 277 277 278
233 236 238 240 242 244 254 261 265 268 269 276 283 288 295 303 311 318 323 324 324 325 325 324 323 322 316 313 313 311 310 307 302 293 290 289 288 286 281 278 279 280 282 285 287 285 281 279 279
233 235 237 240 246 244 244 256 264 265 268 272 277 282 287 294 302 309 315 319 319 321 325 323 320 320 317 312 311 308 306 305 302 301 292 289 290 286 282 281 282 282 284 286 289 287 284 280 281
Height
5918 5917 5917 5917 5918 5918 5915 5913 5911 5910 5908 5907 5905 5904 5903 5903 5903 5904 5901 5899 5899 5898 5897 5897 5896 5896 5896 5896 5895 5895 5895 5895 5895 5895 5896 5896 5896 5897 5897 5897 5897 5898 5898 5898 5899 5899 5899 5900 5901
5920 5920 5920 5920 5922 5920 5918 5915 5914 5912 5911 5909 5907 5906 5905 5904 5903 5902 5901 5900 5899 5899 5898 5898 5897 5897 5897 5896 5896 5896 5896 5896 5896 5896 5897 5897 5897 5897 5898 5898 5898 5898 5899 5899 5900 5900 5900 5901 5902
5923 5923 5924 5925 5924 5922 5920 5918 5916 5914 5912 5910 5909 5908 5907 5906 5904 5903 5902 5901 5901 5900 5899 5899 5898 5898 5897 5897 5897 5897 5897 5897 5897 5897 5897 5898 5898 5898 5899 5899 5899 5899 5900 5900 5901 5901 5901 5902 5903
5926 5927 5928 5929 5925 5924 5922 5920 5918 5916 5914 5912 5911 5910 5908 5907 5906 5905 5903 5902 5902 5901 5900 5900 5899 5899 5898 5898 5898 5898 5898 5898 5898 5898 5898 5899 5899 5899 5899 5900 5900 5900 5901 5901 5902 5902 5903 5903 5904
5929 5930 5932 5931 5928 5926 5924 5922 5920 5918 5916 5915 5913 5912 5910 5909 5908 5907 5905 5904 5903 5902 5901 5901 5900 5899 5899 5899 5899 5899 5899 5899 5899 5899 5899 5899 5899 5900 5900 5900 5901 5901 5902 5902 5903 5903 5904 5904 5905
5933 5934 5937 5933 5931 5928 5926 5924 5922 5920 5919 5917 5915 5914 5912 5911 5909 5908 5907 5905 5904 5903 5902 5902 5901 5900 5900 5900 5899 5899 5899 5900 5900 5900 5900 5900 5900 5900 5901 5901 5901 5902 5902 5903 5904 5904 5905 5905 5906
5936 5938 5937 5936 5933 5931 5929 5927 5924 5923 5921 5919 5918 5916 5914 5912 5911 5910 5908 5907 5906 5905 5904 5903 5902 5901 5900 5900 5900 5900 5900 5900 5900 5901 5901 5901 5901 5901 5901 5901 5902 5902 5903 5904 5904 5905 5905 5906 5906
5937 5940 5939 5938 5936 5934 5932 5929 5927 5925 5924 5922 5920 5918 5916 5915 5913 5911 5910 5908 5907 5906 5905 5903 5902 5902 5901 5901 5901 5901 5901 5901 5901 5901 5901 5901 5901 5902 5902 5902 5903 5903 5904 5904 5905 5906 5906 5907 5907
5939 5944 5942 5940 5938 5936 5934 5931 5930 5927 5925 5923 5921 5920 5918 5916 5914 5913 5911 5910 5908 5907 5906 5904 5903 5902 5902 5901 5901 5901 5901 5901 5901 5901 5902 5902 5902 5902 5903 5903 5904 5904 5905 5905 5906 5906 5907 5908 5908
5942 5945 5943 5941 5939 5937 5935 5933 5932 5929 5927 5925 5923 5921 5919 5918 5916 5915 5913 5911 5910 5908 5907 5905 5904 5903 5902 5902 5902 5902 5902 5901 5901 5902 5902 5902 5903 5903 5903 5904 5904 5905 5905 5906 5906 5907 5908 5908 5909
5943 5944 5943 5942 5940 5939 5937 5936 5934 5932 5930 5927 5925 5923 5921 5920 5918 5916 5915 5913 5911 5909 5908 5906 5905 5904 5903 5903 5902 5902 5902 5902 5902 5902 5902 5903 5903 5903 5904 5905 5905 5905 5906 5906 5907 5907 5908 5909 5909
5944 5944 5943 5943 5942 5940 5939 5938 5936 5934 5932 5929 5926 5924 5923 5921 5920 5918 5916 5914 5913 5911 5909 5908 5906 5905 5904 5904 5903 5903 5903 5902 5902 5902 5903 5903 5904 5904 5905 5905 5905 5906 5906 5907 5907 5908 5909 5909 5909
5944 5945 5944 5944 5943 5942 5941 5939 5938 5936 5933 5931 5928 5926 5925 5923 5921 5920 5918 5916 5914 5912 5911 5909 5908 5907 5905 5905 5904 5904 5903 5903 5903 5903 5903 5904 5904 5905 5905 5905 5906 5906 5907 5907 5908 5908 5909 5909 5910
5945 5945 5945 5945 5944 5943 5942 5941 5939 5937 5935 5933 5931 5929 5927 5925 5923 5921 5920 5917 5915 5914 5912 5910 5909 5907 5906 5905 5905 5904 5904 5903 5903 5903 5904 5904 5904 5905 5905 5906 5906 5906 5907 5907 5908 5909 5909 5910 5910
5945 5946 5946 5946 5945 5944 5944 5943 5941 5939 5937 5935 5933 5931 5928 5926 5925 5923 5921 5919 5917 5915 5913 5911 5910 5908 5907 5906 5905 5905 5904 5904 5904 5904 5904 5904 5905 5905 5905 5906 5906 5907 5907 5907 5908 5909 5909 5910 5910
5946 5947 5948 5947 5946 5945 5946 5946 5943 5940 5939 5937 5935 5932 5930 5928 5926 5924 5922 5920 5918 5916 5914 5912 5910 5909 5907 5906 5905 5905 5904 5904 5904 5904 5904 5904 5904 5905 5905 5906 5906 5906 5907 5907 5908 5909 5909 5909 5910
5946 5948 5948 5947 5946 5946 5946 5945 5944 5942 5940 5938 5936 5934 5932 5929 5927 5925 5923 5921 5919 5917 5915 5912 5911 5909 5908 5906 5905 5904 5904 5903 5903 5903 5903 5903 5904 5904 5905 5905 5906 5906 5907 5907 5908 5908 5909 5909 5909
5946 5947 5947 5947 5946 5946 5946 5945 5944 5942 5941 5939 5937 5935 5932 5930 5928 5926 5924 5921 5919 5917 5915 5913 5911 5909 5907 5906 5905 5904 5903 5903 5903 5903 5903 5903 5903 5904 5904 5905 5905 5905 5906 5907 5907 5908 5908 5908 5909
5943 5945 5946 5946 5945 5946 5945 5945 5944 5943 5941 5939 5937 5935 5933 5931 5929 5927 5925 5922 5920 5918 5915 5913 5912 5910 5908 5907 5905 5905 5904 5903 5903 5903 5903 5903 5903 5903 5904 5904 5904 5905 5905 5905 5906 5906 5907 5907 5908
5941 5943 5944 5944 5944 5945 5945 5944 5943 5942 5941 5939 5937 5936 5934 5931 5929 5927 5925 5923 5920 5918 5916 5913 5912 5910 5908 5907 5906 5905 5904 5903 5903 5902 5902 5902 5902 5902 5903 5903 5903 5904 5904 5904 5905 5905 5905 5906 5906
5939 5941 5942 5943 5943 5943 5944 5944 5943 5941 5940 5939 5937 5935 5934 5931 5929 5927 5925 5923 5920 5918 5916 5913 5911 5910 5908 5907 5905 5904 5904 5903 5902 5902 5902 5901 5902 5902 5902 5902 5902 5902 5903 5903 5903 5903 5904 5904 5904
5937 5938 5939 5941 5942 5943 5943 5946 5942 5940 5939 5938 5937 5935 5933 5931 5929 5927 5924 5922 5920 5918 5916 5914 5911 5910 5908 5906 5905 5904 5903 5902 5901 5901 5901 5901 5901 5900 5900 5900 5901 5901 5901 5901 5901 5902 5902 5902 5902
5934 5935 5937 5938 5940 5941 5941 5942 5943 5939 5938 5937 5936 5934 5932 5931 5928 5926 5924 5922 5920 5917 5915 5913 5911 5909 5907 5906 5904 5903 5902 5901 5901 5900 5900 5900 5899 5899 5899 5899 5899 5899 5899 5900 5900 5900 5900 5900 5900
5930 5933 5934 5936 5938 5939 5939 5940 5940 5938 5936 5935 5934 5933 5931 5930 5928 5925 5923 5921 5919 5916 5914 5912 5910 5908 5906 5905 5903 5902 5902 5901 5900 5899 5899 5899 5898 5898 5898 5897 5897 5897 5898 5898 5898 5898 5897 5897 5897
5928 5931 5934 5935 5937 5938 5936 5936 5937 5935 5934 5934 5933 5931 5930 5928 5926 5924 5922 5920 5918 5915 5913 5911 5908 5906 5905 5904 5902 5901 5900 5900 5899 5898 5898 5897 5897 5897 5896 5896 5896 5895 5895 5895 5895 5895 5895 5895 5895
5924 5928 5931 5934 5936 5935 5932 5933 5934 5933 5932 5931 5931 5930 5928 5926 5925 5923 5921 5918 5916 5914 5911 5909 5907 5905 5904 5903 5901 5900 5899 5898 5898 5897 5896 5896 5896 5895 5895 5894 5894 5893 5893 5893 5893 5893 5892 5892 5892
5919 5922 5926 5929 5929 5931 5931 5930 5930 5930 5929 5929 5928 5928 5926 5925 5923 5921 5919 5917 5914 5912 5909 5907 5905 5904 5903 5901 5900 5899 5898 5897 5896 5895 5894 5894 5894 5893 5893 5893 5892 5891 5891 5891 5890 5890 5889 5889 5888
5915 5918 5921 5924 5925 5928 5928 5928 5928 5926 5926 5926 5926 5925 5924 5923 5921 5919 5916 5914 5912 5910 5907 5905 5904 5902 5901 5900 5898 5897 5896 5895 5894 5893 5893 5892 5892 5891 5891 5890 5890 5889 5889 5888 5887 5887 5886 5885 5884
5910 5913 5915 5919 5921 5924 5926 5928 5924 5923 5923 5923 5923 5923 5922 5920 5919 5917 5914 5912 5910 5908 5905 5903 5902 5900 5899 5897 5896 5895 5894 5893 5892 5891 5890 5890 5890 5889 5888 5887 5887 5886 5885 5885 5884 5883 5882 5881 5880
5904 5907 5910 5914 5915 5918 5922 5925 5920 5920 5920 5920 5920 5920 5919 5918 5916 5914 5912 5910 5908 5906 5903 5901 5900 5898 5897 5896 5894 5893 5892 5891 5890 5889 5888 5887 5887 5886 5885 5884 5883 5883 5882 5881 5880 5879 5878 5877 5876